| time (UTC) | temp F | wind direction | speed MPH | gust MPH | rain 1hr in | rain 24hr in | rain mn in | humidity % | barometer mb |
| 20260506033538 | 76 | 0 | 1.0 | 13.0 | 0.00 | 0.00 | 0.00 | 88 | 1008.0 |
| 20260506033048 | 76 | 207 | 0.0 | 11.0 | 0.00 | 0.00 | 0.00 | 87 | 1008.1 |
| 20260506032538 | 76 | 0 | 0.0 | 14.0 | 0.00 | 0.00 | 0.00 | 87 | 1007.9 |
| 20260506032038 | 76 | 0 | 0.0 | 14.0 | 0.00 | 0.00 | 0.00 | 87 | 1007.8 |
| 20260506031545 | 76 | 0 | 0.0 | 13.0 | 0.00 | 0.00 | 0.00 | 87 | 1007.8 |
| 20260506031037 | 76 | 0 | 0.0 | 9.0 | 0.00 | 0.00 | 0.00 | 87 | 1007.7 |
| 20260506030542 | 76 | 0 | 0.0 | 10.0 | 0.00 | 0.00 | 0.00 | 87 | 1007.7 |
| 20260506030047 | 76 | 0 | 0.0 | 10.0 | 0.00 | 0.00 | 0.00 | 87 | 1007.6 |
| 20260506025537 | 76 | 0 | 0.0 | 10.0 | 0.00 | 0.00 | 0.00 | 88 | 1007.7 |
| 20260506025037 | 76 | 0 | 0.0 | 11.0 | 0.00 | 0.00 | 0.00 | 87 | 1007.5 |
| 20260506024548 | 76 | 0 | 0.0 | 11.0 | 0.00 | 0.00 | 0.00 | 87 | 1007.5 |
| 20260506024037 | 76 | 0 | 0.0 | 4.0 | 0.00 | 0.00 | 0.00 | 87 | 1007.4 |
| 20260506023538 | 76 | 0 | 0.0 | 8.0 | 0.00 | 0.00 | 0.00 | 87 | 1007.4 |
| 20260506023105 | 76 | 0 | 0.0 | 9.0 | 0.00 | 0.00 | 0.00 | 87 | 1007.4 |
| 20260506022539 | 76 | 0 | 0.0 | 9.0 | 0.00 | 0.00 | 0.00 | 86 | 1007.3 |
| 20260506022038 | 77 | 0 | 0.0 | 9.0 | 0.00 | 0.00 | 0.00 | 86 | 1007.3 |
| 20260506021610 | 77 | 0 | 0.0 | 9.0 | 0.00 | 0.00 | 0.00 | 86 | 1007.4 |
| 20260506021039 | 77 | 0 | 0.0 | 8.0 | 0.00 | 0.00 | 0.00 | 86 | 1007.4 |
| 20260506020537 | 77 | 0 | 0.0 | 8.0 | 0.00 | 0.00 | 0.00 | 86 | 1007.3 |
| 20260506020044 | 77 | 0 | 0.0 | 9.0 | 0.00 | 0.00 | 0.00 | 86 | 1007.2 |
| 20260506015541 | 77 | 0 | 0.0 | 9.0 | 0.00 | 0.00 | 0.00 | 86 | 1007.4 |
| 20260506015040 | 77 | 0 | 0.0 | 7.0 | 0.00 | 0.00 | 0.00 | 86 | 1007.3 |
| 20260506014547 | 77 | 0 | 0.0 | 8.0 | 0.00 | 0.00 | 0.00 | 86 | 1007.1 |
| 20260506014040 | 77 | 0 | 0.0 | 8.0 | 0.00 | 0.00 | 0.00 | 86 | 1007.0 |
| 20260506013541 | 77 | 0 | 0.0 | 8.0 | 0.00 | 0.00 | 0.00 | 86 | 1007.0 |
| 20260506013057 | 77 | 0 | 0.0 | 9.0 | 0.00 | 0.00 | 0.00 | 85 | 1006.8 |
| 20260506012539 | 77 | 0 | 0.0 | 9.0 | 0.00 | 0.00 | 0.00 | 85 | 1006.6 |
| 20260506012039 | 78 | 0 | 0.0 | 1.0 | 0.00 | 0.00 | 0.00 | 84 | 1006.6 |
| 20260506011559 | 78 | 0 | 0.0 | 2.0 | 0.00 | 0.00 | 0.00 | 84 | 1006.4 |
| 20260506011038 | 78 | 0 | 0.0 | 8.0 | 0.00 | 0.00 | 0.00 | 84 | 1006.2 |
| 20260506010538 | 78 | 0 | 0.0 | 10.0 | 0.00 | 0.00 | 0.00 | 83 | 1006.2 |
| 20260506010056 | 78 | 0 | 0.0 | 11.0 | 0.00 | 0.00 | 0.00 | 83 | 1006.1 |
| 20260506005540 | 79 | 0 | 2.0 | 11.0 | 0.00 | 0.00 | 0.00 | 83 | 1006.0 |
| 20260506005037 | 79 | 0 | 0.0 | 11.0 | 0.00 | 0.00 | 0.00 | 83 | 1006.1 |
| 20260506004543 | 79 | 0 | 0.0 | 11.0 | 0.00 | 0.00 | 0.00 | 83 | 1006.0 |
| 20260506004039 | 79 | 0 | 0.0 | 6.0 | 0.00 | 0.00 | 0.00 | 82 | 1006.0 |
| 20260506003537 | 79 | 0 | 0.0 | 9.0 | 0.00 | 0.00 | 0.00 | 82 | 1006.1 |
| 20260506003045 | 80 | 0 | 0.0 | 9.0 | 0.00 | 0.00 | 0.00 | 82 | 1006.1 |
| 20260506002538 | 80 | 0 | 0.0 | 8.0 | 0.00 | 0.00 | 0.00 | 82 | 1006.0 |
| 20260506002038 | 80 | 209 | 0.0 | 4.0 | 0.00 | 0.00 | 0.00 | 81 | 1006.1 |
| 20260506001554 | 80 | 0 | 0.0 | 10.0 | 0.00 | 0.00 | 0.00 | 81 | 1006.2 |
| 20260506001038 | 80 | 0 | 0.0 | 10.0 | 0.00 | 0.00 | 0.00 | 81 | 1006.2 |
| 20260506000537 | 81 | 0 | 0.0 | 10.0 | 0.00 | 0.00 | 0.00 | 81 | 1006.1 |
| 20260506000054 | 81 | 0 | 0.0 | 10.0 | 0.00 | 0.00 | 0.00 | 80 | 1006.1 |
| 20260505235539 | 81 | 0 | 0.0 | 10.0 | 0.00 | 0.00 | 0.00 | 80 | 1006.0 |
| 20260505235038 | 81 | 196 | 0.0 | 11.0 | 0.00 | 0.00 | 0.00 | 79 | 1006.0 |
| 20260505234551 | 81 | 0 | 0.0 | 11.0 | 0.00 | 0.00 | 0.00 | 80 | 1006.0 |
| 20260505234038 | 81 | 199 | 0.0 | 11.0 | 0.00 | 0.00 | 0.00 | 79 | 1006.0 |
| 20260505233537 | 82 | 0 | 1.0 | 17.0 | 0.00 | 0.00 | 0.00 | 79 | 1006.1 |
| 20260505233048 | 82 | 0 | 1.0 | 17.0 | 0.00 | 0.00 | 0.00 | 79 | 1005.9 |
| 20260505232537 | 82 | 208 | 0.0 | 12.0 | 0.00 | 0.00 | 0.00 | 79 | 1005.8 |
| 20260505232041 | 82 | 0 | 0.0 | 10.0 | 0.00 | 0.00 | 0.00 | 80 | 1005.9 |
| 20260505231603 | 82 | 0 | 1.0 | 10.0 | 0.00 | 0.00 | 0.00 | 79 | 1005.8 |
| 20260505231037 | 82 | 0 | 0.0 | 10.0 | 0.00 | 0.00 | 0.00 | 79 | 1005.8 |
| 20260505230538 | 83 | 0 | 0.0 | 10.0 | 0.00 | 0.00 | 0.00 | 78 | 1005.8 |
| 20260505230051 | 83 | 0 | 0.0 | 12.0 | 0.00 | 0.00 | 0.00 | 78 | 1006.0 |
| 20260505225538 | 83 | 0 | 1.0 | 12.0 | 0.00 | 0.00 | 0.00 | 78 | 1006.0 |
| 20260505225038 | 83 | 0 | 0.0 | 11.0 | 0.00 | 0.00 | 0.00 | 78 | 1005.9 |
| 20260505224551 | 83 | 0 | 0.0 | 18.0 | 0.00 | 0.00 | 0.00 | 76 | 1005.8 |
| 20260505224037 | 84 | 0 | 0.0 | 18.0 | 0.00 | 0.00 | 0.00 | 78 | 1005.9 |
| 20260505223537 | 83 | 219 | 0.0 | 9.0 | 0.00 | 0.00 | 0.00 | 77 | 1006.0 |
| 20260505223049 | 84 | 215 | 0.0 | 8.0 | 0.00 | 0.00 | 0.00 | 75 | 1005.9 |
| 20260505222539 | 84 | 0 | 0.0 | 9.0 | 0.00 | 0.00 | 0.00 | 78 | 1005.9 |
| 20260505222038 | 84 | 0 | 0.0 | 9.0 | 0.00 | 0.00 | 0.00 | 77 | 1005.9 |
| 20260505221550 | 84 | 0 | 0.0 | 11.0 | 0.00 | 0.00 | 0.00 | 76 | 1006.0 |
| 20260505221038 | 84 | 0 | 0.0 | 11.0 | 0.00 | 0.00 | 0.00 | 75 | 1005.9 |
| 20260505220537 | 85 | 0 | 0.0 | 11.0 | 0.00 | 0.00 | 0.00 | 76 | 1006.0 |
| 20260505220059 | 84 | 0 | 0.0 | 11.0 | 0.00 | 0.00 | 0.00 | 77 | 1005.9 |
| 20260505215537 | 85 | 0 | 0.0 | 12.0 | 0.00 | 0.00 | 0.00 | 77 | 1006.0 |
| 20260505215037 | 84 | 0 | 0.0 | 12.0 | 0.00 | 0.00 | 0.00 | 76 | 1006.0 |
| 20260505214556 | 85 | 182 | 0.0 | 12.0 | 0.00 | 0.00 | 0.00 | 75 | 1006.0 |
| 20260505214038 | 85 | 0 | 0.0 | 16.0 | 0.00 | 0.00 | 0.00 | 75 | 1006.0 |
| 20260505213537 | 86 | 0 | 1.0 | 16.0 | 0.00 | 0.00 | 0.00 | 72 | 1006.2 |
| 20260505213049 | 87 | 0 | 0.0 | 12.0 | 0.00 | 0.00 | 0.00 | 73 | 1006.1 |
| 20260505212538 | 86 | 182 | 1.0 | 15.0 | 0.00 | 0.00 | 0.00 | 74 | 1006.2 |
| 20260505212038 | 87 | 0 | 1.0 | 15.0 | 0.00 | 0.00 | 0.00 | 72 | 1006.2 |
| 20260505211546 | 86 | 0 | 2.0 | 15.0 | 0.00 | 0.00 | 0.00 | 74 | 1006.4 |
| 20260505211038 | 87 | 242 | 0.0 | 11.0 | 0.00 | 0.00 | 0.00 | 72 | 1006.4 |
| 20260505210537 | 87 | 0 | 0.0 | 10.0 | 0.00 | 0.00 | 0.00 | 73 | 1006.5 |
| 20260505210050 | 87 | 142 | 1.0 | 12.0 | 0.00 | 0.00 | 0.00 | 72 | 1006.7 |
| 20260505205538 | 86 | 0 | 0.0 | 12.0 | 0.00 | 0.00 | 0.00 | 74 | 1006.7 |
| 20260505205038 | 86 | 0 | 0.0 | 12.0 | 0.00 | 0.00 | 0.00 | 73 | 1006.7 |
| 20260505204545 | 86 | 186 | 0.0 | 11.0 | 0.00 | 0.00 | 0.00 | 75 | 1006.9 |
| 20260505204040 | 87 | 0 | 1.0 | 11.0 | 0.00 | 0.00 | 0.00 | 73 | 1006.8 |
| 20260505203537 | 87 | 204 | 0.0 | 10.0 | 0.00 | 0.00 | 0.00 | 74 | 1007.0 |
| 20260505203106 | 87 | 0 | 0.0 | 10.0 | 0.00 | 0.00 | 0.00 | 73 | 1007.1 |
| 20260505202538 | 88 | 0 | 0.0 | 6.0 | 0.00 | 0.00 | 0.00 | 74 | 1007.1 |
| 20260505202038 | 86 | 0 | 0.0 | 12.0 | 0.00 | 0.00 | 0.00 | 75 | 1007.2 |
| 20260505201557 | 85 | 0 | 0.0 | 12.0 | 0.00 | 0.00 | 0.00 | 76 | 1007.3 |
| 20260505201038 | 85 | 0 | 0.0 | 14.0 | 0.00 | 0.00 | 0.00 | 74 | 1007.4 |
| 20260505200538 | 85 | 209 | 2.0 | 14.0 | 0.00 | 0.00 | 0.00 | 77 | 1007.5 |
| 20260505200052 | 84 | 0 | 0.0 | 11.0 | 0.00 | 0.00 | 0.00 | 77 | 1007.6 |
| 20260505195539 | 85 | 0 | 0.0 | 12.0 | 0.00 | 0.00 | 0.00 | 74 | 1007.4 |
| 20260505195037 | 86 | 0 | 1.0 | 12.0 | 0.00 | 0.00 | 0.00 | 72 | 1007.5 |
| 20260505194547 | 86 | 171 | 1.0 | 17.0 | 0.00 | 0.00 | 0.00 | 75 | 1007.5 |
| 20260505194038 | 84 | 0 | 0.0 | 17.0 | 0.00 | 0.00 | 0.00 | 76 | 1007.7 |
| 20260505193537 | 85 | 0 | 2.0 | 17.0 | 0.00 | 0.00 | 0.00 | 75 | 1007.6 |
| 20260505193045 | 85 | 0 | 2.0 | 11.0 | 0.00 | 0.00 | 0.00 | 76 | 1007.7 |
| 20260505192537 | 85 | 0 | 2.0 | 13.0 | 0.00 | 0.00 | 0.00 | 75 | 1007.7 |
| 20260505192042 | 86 | 0 | 2.0 | 13.0 | 0.00 | 0.00 | 0.00 | 74 | 1007.8 |
| 20260505191603 | 87 | 0 | 1.0 | 12.0 | 0.00 | 0.00 | 0.00 | 72 | 1007.8 |
| 20260505191038 | 85 | 0 | 4.0 | 12.0 | 0.00 | 0.00 | 0.00 | 74 | 1007.8 |
| 20260505190538 | 85 | 0 | 2.0 | 12.0 | 0.00 | 0.00 | 0.00 | 75 | 1007.9 |
| 20260505190053 | 85 | 0 | 1.0 | 12.0 | 0.00 | 0.00 | 0.00 | 75 | 1007.9 |
| 20260505185538 | 85 | 0 | 1.0 | 16.0 | 0.00 | 0.00 | 0.00 | 75 | 1008.0 |
| 20260505185037 | 84 | 0 | 3.0 | 16.0 | 0.00 | 0.00 | 0.00 | 76 | 1008.0 |
| 20260505184548 | 84 | 203 | 2.0 | 12.0 | 0.00 | 0.00 | 0.00 | 77 | 1007.9 |
| 20260505184038 | 84 | 0 | 0.0 | 12.0 | 0.00 | 0.00 | 0.00 | 77 | 1007.9 |
| 20260505183539 | 84 | 0 | 1.0 | 13.0 | 0.00 | 0.00 | 0.00 | 75 | 1008.1 |
| 20260505183047 | 86 | 0 | 2.0 | 13.0 | 0.00 | 0.00 | 0.00 | 75 | 1008.0 |
| 20260505182537 | 84 | 0 | 0.0 | 10.0 | 0.00 | 0.00 | 0.00 | 76 | 1008.1 |
| 20260505182037 | 84 | 0 | 0.0 | 15.0 | 0.00 | 0.00 | 0.00 | 76 | 1008.1 |
| 20260505181550 | 85 | 0 | 3.0 | 15.0 | 0.00 | 0.00 | 0.00 | 75 | 1008.2 |
| 20260505181038 | 85 | 0 | 3.0 | 20.0 | 0.00 | 0.00 | 0.00 | 77 | 1008.1 |
| 20260505180537 | 84 | 0 | 0.0 | 20.0 | 0.00 | 0.00 | 0.00 | 78 | 1008.3 |
| 20260505180100 | 82 | 0 | 2.0 | 19.0 | 0.00 | 0.00 | 0.00 | 78 | 1008.3 |
| 20260505175538 | 83 | 186 | 2.0 | 16.0 | 0.00 | 0.00 | 0.00 | 76 | 1008.3 |
| 20260505175038 | 82 | 0 | 4.0 | 16.0 | 0.00 | 0.00 | 0.00 | 80 | 1008.4 |
| 20260505174547 | 82 | 0 | 5.0 | 15.0 | 0.00 | 0.00 | 0.00 | 79 | 1008.5 |
| 20260505174038 | 83 | 0 | 1.0 | 14.0 | 0.00 | 0.00 | 0.00 | 78 | 1008.6 |
| 20260505173537 | 82 | 192 | 2.0 | 14.0 | 0.00 | 0.00 | 0.00 | 80 | 1008.7 |
| 20260505173051 | 82 | 0 | 3.0 | 14.0 | 0.00 | 0.00 | 0.00 | 78 | 1008.7 |
| 20260505172537 | 81 | 0 | 4.0 | 14.0 | 0.00 | 0.00 | 0.00 | 80 | 1008.7 |
| 20260505172038 | 81 | 233 | 2.0 | 16.0 | 0.00 | 0.00 | 0.00 | 82 | 1008.8 |
| 20260505171550 | 80 | 0 | 4.0 | 16.0 | 0.00 | 0.00 | 0.00 | 81 | 1008.8 |
| 20260505171038 | 81 | 199 | 0.0 | 15.0 | 0.00 | 0.00 | 0.00 | 79 | 1009.0 |
| 20260505170537 | 82 | 216 | 4.0 | 15.0 | 0.00 | 0.00 | 0.00 | 80 | 1008.8 |
| 20260505170103 | 81 | 0 | 2.0 | 15.0 | 0.00 | 0.00 | 0.00 | 81 | 1008.8 |
| 20260505165537 | 82 | 195 | 1.0 | 15.0 | 0.00 | 0.00 | 0.00 | 81 | 1008.8 |
| 20260505165040 | 81 | 216 | 3.0 | 15.0 | 0.00 | 0.00 | 0.00 | 82 | 1009.0 |
| 20260505164553 | 80 | 232 | 1.0 | 12.0 | 0.00 | 0.00 | 0.00 | 83 | 1009.1 |
| 20260505164037 | 80 | 0 | 2.0 | 12.0 | 0.00 | 0.00 | 0.00 | 84 | 1009.0 |
| 20260505163538 | 78 | 0 | 0.0 | 11.0 | 0.00 | 0.00 | 0.00 | 86 | 1008.9 |
| 20260505163049 | 77 | 0 | 1.0 | 15.0 | 0.00 | 0.00 | 0.00 | 86 | 1009.3 |
| 20260505162538 | 77 | 0 | 0.0 | 15.0 | 0.00 | 0.00 | 0.00 | 86 | 1009.1 |
| 20260505162038 | 77 | 201 | 2.0 | 14.0 | 0.00 | 0.00 | 0.00 | 86 | 1009.2 |
| 20260505161546 | 77 | 0 | 1.0 | 13.0 | 0.00 | 0.00 | 0.00 | 86 | 1009.1 |
| 20260505161038 | 77 | 214 | 0.0 | 14.0 | 0.00 | 0.00 | 0.00 | 86 | 1009.3 |
| 20260505160538 | 77 | 205 | 1.0 | 14.0 | 0.00 | 0.00 | 0.00 | 86 | 1009.4 |
| 20260505153100 | 76 | 0 | 1.0 | 12.0 | 0.00 | 0.00 | 0.00 | 88 | 1009.0 |
| 20260505152538 | 75 | 0 | 0.0 | 12.0 | 0.00 | 0.00 | 0.00 | 88 | 1008.9 |
| 20260505152039 | 75 | 194 | 1.0 | 12.0 | 0.00 | 0.00 | 0.00 | 88 | 1008.9 |
| 20260505151602 | 75 | 236 | 2.0 | 12.0 | 0.00 | 0.00 | 0.00 | 88 | 1009.0 |
| 20260505151038 | 75 | 0 | 1.0 | 18.0 | 0.00 | 0.00 | 0.00 | 89 | 1009.1 |
| 20260505150542 | 75 | 182 | 2.0 | 18.0 | 0.00 | 0.00 | 0.00 | 89 | 1009.0 |
| 20260505140537 | 72 | 0 | 2.0 | 11.0 | 0.00 | 0.00 | 0.00 | 91 | 1008.8 |
| 20260505125037 | 70 | 0 | 0.0 | 7.0 | 0.00 | 0.00 | 0.00 | 92 | 1008.3 |
| 20260505124554 | 70 | 0 | 0.0 | 0.0 | 0.00 | 0.00 | 0.00 | 92 | 1008.3 |
| 20260505124037 | 70 | 0 | 0.0 | 0.0 | 0.00 | 0.00 | 0.00 | 92 | 1008.3 |
| 20260505123538 | 70 | 0 | 0.0 | 0.0 | 0.00 | 0.00 | 0.00 | 92 | 1008.4 |
| 20260505123049 | 70 | 0 | 0.0 | 1.0 | 0.00 | 0.00 | 0.00 | 92 | 1008.5 |
| 20260505122540 | 70 | 0 | 0.0 | 7.0 | 0.00 | 0.00 | 0.00 | 91 | 1008.5 |
| 20260505122038 | 70 | 0 | 0.0 | 8.0 | 0.00 | 0.00 | 0.00 | 91 | 1008.2 |
| 20260505121603 | 70 | 0 | 0.0 | 8.0 | 0.00 | 0.00 | 0.00 | 91 | 1008.0 |
| 20260505121037 | 70 | 0 | 0.0 | 8.0 | 0.00 | 0.00 | 0.00 | 91 | 1007.8 |
| 20260505120537 | 70 | 0 | 0.0 | 9.0 | 0.00 | 0.00 | 0.00 | 91 | 1007.9 |
| 20260505120046 | 70 | 0 | 0.0 | 9.0 | 0.00 | 0.00 | 0.00 | 91 | 1007.8 |
| 20260505115540 | 70 | 0 | 0.0 | 6.0 | 0.00 | 0.00 | 0.00 | 91 | 1007.9 |
| 20260505115037 | 70 | 0 | 0.0 | 6.0 | 0.00 | 0.00 | 0.00 | 91 | 1008.2 |
| 20260505114550 | 70 | 0 | 0.0 | 11.0 | 0.00 | 0.00 | 0.00 | 91 | 1008.0 |
| 20260505114038 | 70 | 0 | 0.0 | 11.0 | 0.00 | 0.00 | 0.00 | 91 | 1008.1 |
| 20260505113538 | 70 | 0 | 0.0 | 8.0 | 0.00 | 0.00 | 0.00 | 91 | 1008.0 |
| 20260505113053 | 70 | 0 | 0.0 | 8.0 | 0.00 | 0.00 | 0.00 | 91 | 1008.0 |
| 20260505112538 | 70 | 0 | 0.0 | 9.0 | 0.00 | 0.00 | 0.00 | 91 | 1008.1 |
| 20260505112038 | 70 | 0 | 0.0 | 9.0 | 0.00 | 0.00 | 0.00 | 91 | 1008.0 |
| 20260505111553 | 70 | 0 | 0.0 | 0.0 | 0.00 | 0.00 | 0.00 | 91 | 1007.8 |
| 20260505111038 | 69 | 0 | 0.0 | 0.0 | 0.00 | 0.00 | 0.00 | 91 | 1008.0 |
| 20260505110541 | 69 | 0 | 0.0 | 0.0 | 0.00 | 0.00 | 0.00 | 91 | 1007.9 |
| 20260505102038 | 69 | 0 | 0.0 | 4.0 | 0.00 | 0.00 | 0.00 | 91 | 1007.8 |
| 20260505101555 | 69 | 0 | 0.0 | 4.0 | 0.00 | 0.00 | 0.00 | 92 | 1007.9 |
| 20260505101038 | 69 | 0 | 0.0 | 0.0 | 0.00 | 0.00 | 0.00 | 91 | 1008.0 |
| 20260505100538 | 69 | 0 | 0.0 | 0.0 | 0.00 | 0.00 | 0.00 | 91 | 1008.0 |
| 20260505100050 | 69 | 0 | 0.0 | 0.0 | 0.00 | 0.00 | 0.00 | 91 | 1008.0 |
| 20260505095538 | 69 | 0 | 0.0 | 0.0 | 0.00 | 0.00 | 0.00 | 91 | 1008.1 |
| 20260505095037 | 69 | 0 | 0.0 | 0.0 | 0.00 | 0.00 | 0.00 | 91 | 1008.0 |
| 20260505094545 | 68 | 0 | 0.0 | 0.0 | 0.00 | 0.00 | 0.00 | 91 | 1008.0 |
| 20260505094038 | 69 | 0 | 0.0 | 0.0 | 0.00 | 0.00 | 0.00 | 91 | 1008.0 |
| 20260505093539 | 68 | 0 | 0.0 | 0.0 | 0.00 | 0.00 | 0.00 | 91 | 1008.0 |
| 20260505093053 | 68 | 0 | 0.0 | 0.0 | 0.00 | 0.00 | 0.00 | 91 | 1008.1 |
| 20260505092538 | 68 | 0 | 0.0 | 3.0 | 0.00 | 0.00 | 0.00 | 91 | 1008.1 |
| 20260505092038 | 68 | 0 | 0.0 | 3.0 | 0.00 | 0.00 | 0.00 | 91 | 1008.2 |
| 20260505091550 | 68 | 0 | 0.0 | 0.0 | 0.00 | 0.00 | 0.00 | 91 | 1008.2 |
| 20260505091037 | 68 | 0 | 0.0 | 0.0 | 0.00 | 0.00 | 0.00 | 91 | 1008.2 |
| 20260505090538 | 68 | 0 | 0.0 | 0.0 | 0.00 | 0.00 | 0.00 | 91 | 1008.3 |
| 20260505090101 | 68 | 0 | 0.0 | 0.0 | 0.00 | 0.00 | 0.00 | 91 | 1008.1 |
| 20260505085538 | 68 | 0 | 0.0 | 0.0 | 0.00 | 0.00 | 0.00 | 91 | 1008.2 |
| 20260505085038 | 68 | 0 | 0.0 | 0.0 | 0.00 | 0.00 | 0.00 | 91 | 1008.5 |
| 20260505084552 | 68 | 0 | 0.0 | 0.0 | 0.00 | 0.00 | 0.00 | 91 | 1008.5 |
| 20260505084038 | 68 | 0 | 0.0 | 0.0 | 0.00 | 0.00 | 0.00 | 91 | 1008.5 |
| 20260505083537 | 68 | 0 | 0.0 | 0.0 | 0.00 | 0.00 | 0.00 | 91 | 1008.5 |
| 20260505083055 | 68 | 0 | 0.0 | 0.0 | 0.00 | 0.00 | 0.00 | 91 | 1008.7 |
| 20260505082538 | 68 | 0 | 0.0 | 0.0 | 0.00 | 0.00 | 0.00 | 91 | 1008.6 |
| 20260505082038 | 68 | 0 | 0.0 | 0.0 | 0.00 | 0.00 | 0.00 | 91 | 1008.8 |
| 20260505081556 | 68 | 0 | 0.0 | 0.0 | 0.00 | 0.00 | 0.00 | 91 | 1008.9 |
| 20260505081038 | 68 | 0 | 0.0 | 0.0 | 0.00 | 0.00 | 0.00 | 91 | 1009.0 |
| 20260505080539 | 68 | 0 | 0.0 | 0.0 | 0.00 | 0.00 | 0.00 | 90 | 1008.9 |
| 20260505080053 | 68 | 0 | 0.0 | 8.0 | 0.00 | 0.00 | 0.00 | 90 | 1009.1 |
| 20260505075542 | 68 | 0 | 0.0 | 9.0 | 0.00 | 0.00 | 0.00 | 90 | 1009.2 |
| 20260505075039 | 68 | 0 | 0.0 | 9.0 | 0.00 | 0.00 | 0.00 | 90 | 1009.0 |
| 20260505074545 | 68 | 0 | 0.0 | 0.0 | 0.00 | 0.00 | 0.00 | 90 | 1008.9 |
| 20260505074038 | 68 | 0 | 0.0 | 3.0 | 0.00 | 0.00 | 0.00 | 90 | 1008.9 |
| 20260505073538 | 68 | 0 | 0.0 | 3.0 | 0.00 | 0.00 | 0.00 | 90 | 1009.0 |
| 20260505073048 | 68 | 0 | 0.0 | 0.0 | 0.00 | 0.00 | 0.00 | 89 | 1009.3 |
| 20260505072542 | 68 | 0 | 0.0 | 0.0 | 0.00 | 0.00 | 0.00 | 89 | 1009.3 |
| 20260505072039 | 68 | 0 | 0.0 | 0.0 | 0.00 | 0.00 | 0.00 | 89 | 1009.1 |
| 20260505071545 | 68 | 0 | 0.0 | 0.0 | 0.00 | 0.00 | 0.00 | 89 | 1009.3 |
| 20260505071038 | 68 | 0 | 0.0 | 0.0 | 0.00 | 0.00 | 0.00 | 89 | 1009.4 |
| 20260505070538 | 68 | 0 | 0.0 | 0.0 | 0.00 | 0.00 | 0.00 | 89 | 1009.6 |
| 20260505070051 | 68 | 0 | 0.0 | 0.0 | 0.00 | 0.00 | 0.00 | 89 | 1009.7 |
| 20260505065538 | 68 | 0 | 0.0 | 0.0 | 0.00 | 0.00 | 0.00 | 89 | 1009.7 |
| 20260505065038 | 68 | 0 | 0.0 | 0.0 | 0.00 | 0.00 | 0.00 | 89 | 1009.9 |
| 20260505064544 | 68 | 0 | 0.0 | 0.0 | 0.00 | 0.00 | 0.00 | 89 | 1009.9 |
| 20260505064037 | 68 | 0 | 0.0 | 0.0 | 0.00 | 0.00 | 0.00 | 89 | 1009.9 |
| 20260505063537 | 68 | 0 | 0.0 | 0.0 | 0.00 | 0.00 | 0.00 | 88 | 1009.8 |
| 20260505063048 | 68 | 0 | 0.0 | 3.0 | 0.00 | 0.00 | 0.00 | 88 | 1009.9 |
| 20260505062537 | 68 | 0 | 0.0 | 5.0 | 0.00 | 0.00 | 0.00 | 88 | 1009.9 |
| 20260505062037 | 68 | 0 | 0.0 | 5.0 | 0.00 | 0.00 | 0.00 | 88 | 1010.0 |
| 20260505061548 | 68 | 0 | 0.0 | 11.0 | 0.00 | 0.00 | 0.00 | 88 | 1009.9 |
| 20260505061038 | 68 | 0 | 0.0 | 11.0 | 0.00 | 0.00 | 0.00 | 88 | 1009.8 |
| 20260505060538 | 68 | 0 | 0.0 | 1.0 | 0.00 | 0.00 | 0.00 | 88 | 1009.7 |
| 20260505060052 | 68 | 0 | 0.0 | 7.0 | 0.00 | 0.00 | 0.00 | 88 | 1009.6 |
| 20260505055538 | 68 | 0 | 0.0 | 7.0 | 0.00 | 0.00 | 0.00 | 88 | 1009.7 |
| 20260505055038 | 68 | 0 | 0.0 | 4.0 | 0.00 | 0.00 | 0.00 | 88 | 1009.7 |
| 20260505054551 | 69 | 0 | 0.0 | 5.0 | 0.00 | 0.00 | 0.00 | 88 | 1009.8 |
| 20260505054038 | 69 | 0 | 0.0 | 5.0 | 0.00 | 0.00 | 0.00 | 88 | 1009.7 |
| 20260505053537 | 69 | 0 | 0.0 | 8.0 | 0.00 | 0.00 | 0.00 | 87 | 1009.8 |
| 20260505053052 | 69 | 188 | 0.0 | 9.0 | 0.00 | 0.00 | 0.00 | 87 | 1009.7 |
| 20260505052537 | 69 | 155 | 0.0 | 10.0 | 0.00 | 0.00 | 0.00 | 87 | 1009.7 |
| 20260505052038 | 69 | 0 | 0.0 | 10.0 | 0.00 | 0.00 | 0.00 | 87 | 1009.7 |
| 20260505051546 | 69 | 0 | 0.0 | 11.0 | 0.00 | 0.00 | 0.00 | 87 | 1009.8 |
| 20260505051039 | 69 | 0 | 0.0 | 11.0 | 0.00 | 0.00 | 0.00 | 87 | 1009.8 |
| 20260505050538 | 69 | 0 | 0.0 | 11.0 | 0.00 | 0.00 | 0.00 | 87 | 1010.0 |
| 20260505041548 | 70 | 0 | 1.0 | 11.0 | 0.00 | 0.00 | 0.00 | 84 | 1010.1 |
| 20260505041038 | 70 | 0 | 0.0 | 7.0 | 0.00 | 0.00 | 0.00 | 84 | 1010.2 |
| 20260505040538 | 70 | 0 | 0.0 | 11.0 | 0.00 | 0.00 | 0.00 | 84 | 1010.2 |
| 20260505040049 | 71 | 0 | 0.0 | 11.0 | 0.00 | 0.00 | 0.00 | 84 | 1010.2 |
| 20260505035539 | 71 | 0 | 0.0 | 11.0 | 0.00 | 0.00 | 0.00 | 83 | 1010.1 |
| 20260505035041 | 71 | 211 | 0.0 | 11.0 | 0.00 | 0.00 | 0.00 | 83 | 1010.1 |
| 20260505034546 | 71 | 184 | 2.0 | 11.0 | 0.00 | 0.00 | 0.00 | 83 | 1009.9 |
| 20260505034038 | 71 | 0 | 0.0 | 7.0 | 0.00 | 0.00 | 0.00 | 83 | 1010.0 |